Find Kosmos-1331

NORAD ID: 13027 Int'l Des: 1982-001 Owner: GUKOS Country: SU operational
LEOCIRCULAR

当前视图

正在加载3D地球...

关于 Kosmos-1331

正在加载描述...

即将过境

Passes for default location (London). Set your location on the main map for personalized predictions.

高度历史

Loading altitude history...

两行轨道根数

1 13027U 82001A 26151.48526315 .00000161 00000-0 62182-4 0 9994
2 13027 74.0459 186.6168 0022777 138.2262 222.0636 14.37723710325173
Epoch: May 31, 2026 • Age: 7 hours

当前状态

高度 755.9 km
速度 7.49 km/s
星下点 43.42°N, 176.93°E
发射日期 Jan 7, 1982
运行时间 44.3 years
类型 other

技术详情

分类 Payload
质量 800.00 kg
干质量 800.00 kg
总质量 800.00 kg
长度 3.00 m
直径 2.00 m
跨度 3.00 m
形状 Cyl
制造商 NPOPM
平台类型 Strela-2M
阶段状态 In Orbit
所有者/国家 GUKOS/SU

Most Searched